Regional Weather Roundup
Issued by NWS

Home | Current Version | Previous Version | Text Only | Print | Product List | Glossary Off
Versions: 1 2 3 4 5 6 7 8 9 10 11 12 13 14 15 16 17 18 19 20 21 22 23 24 25 26 27 28 29 30 31 32 33 34 35 36 37 38 39 40 41 42 43 44 45 46 47 48 49 50

000
ASUS43 KLOT 280812
RWRIL

ILLINOIS REGIONAL WEATHER ROUNDUP
NATIONAL WEATHER SERVICE CHICAGO/ROMEOVILLE IL
300 AM CDT SAT MAR 28 2015

NOTE: "FAIR" INDICATES FEW OR NO CLOUDS BELOW 12,000 FEET WITH NO
SIGNIFICANT WEATHER AND/OR OBSTRUCTIONS TO VISIBILITY.

* THESE STATIONS ARE NOT UNDER NWS QUALITY CONTROL. THEY ALSO MAY NOT
  REPORT WEATHER SUCH AS PRECIPITATION OR FOG.

ILZ001-002-007-009-015-016-024-280900-
NORTHWEST ILLINOIS

CITY           SKY/WX    TMP DP  RH WIND       PRES   REMARKS
MOLINE         PTCLDY    21  15  78 E3        30.21S
STERLING*      CLEAR     21  16  79 E7        30.23S WCI  13
SAVANNA*       CLEAR     23  15  72 SE5       30.23F WCI  16
$$

ILZ003-004-008-010-011-017-018-280900-
NORTH CENTRAL ILLINOIS

CITY           SKY/WX    TMP DP  RH WIND       PRES   REMARKS
ROCKFORD       CLEAR     18  13  80 CALM      30.25S
FREEPORT*      CLEAR     16  13  85 SE3       30.24S
ROCHELLE*      CLEAR     18  15  88 CALM      30.24S
DE KALB*       CLEAR     18  13  79 CALM      30.22F
PERU*          CLEAR     21  15  78 E5        30.24S WCI  15
$$

ILZ005-006-012>014-019>023-280900-
NORTHEAST ILLINOIS

CITY           SKY/WX    TMP DP  RH WIND       PRES   REMARKS
CHICAGO-OHARE  PTCLDY    21  13  71 N7        30.22S WCI  12
CHICAGO-MIDWAY PTCLDY    26  13  57 N6        30.22F WCI  19
AURORA         CLEAR     18  12  77 NW5       30.23S WCI  11
LANSING*       CLEAR     24  11  56 N6        30.21F WCI  17
JOLIET*        CLEAR     22  16  76 CALM      30.23S
WAUKEGAN       CLEAR     17  13  84 NW3       30.22S
DUPAGE AIRPORT CLEAR     17  11  77 W6        30.22S WCI   9
KANKAKEE*      CLEAR     21  17  84 W3        30.22S
WHEELING       CLEAR     20  13  74 CALM      30.24S
MORRIS*        CLEAR     16  12  86 NW3       30.23S
ROMEOVILLE*    CLEAR     19  14  80 NW6       30.23S WCI  11
NORTHERLY ISL    N/A     26  15  63 N14         N/A  WCI  15
$$

LMZ740>746-280900-
SOUTHERN LAKE MICHIGAN

STATION/POSITION SKY/WX   TEMP    WIND        PRES    VSBY  WAVE
                          AIR SEA DIR/SP/G                  HT/PER
                          (F)     (DEG/KT/KT) (MB)    (MI)  (FT/S)
HARRISON CRIB              26      20/ 16/ 19   N/A
BURNHAM HARBOR             26      30/ 11/ 14   N/A
CALUMET HARBOR             26     360/  8/ 13 1022.1R
BURNS HARBOR               26      30/ 11/ 19 1023.0S
MICHIGAN CITY              23      10/ 15/ 17   N/A
$$

ILZ025>027-034>036-040-047-049-050-058-095>099-280900-
WEST-CENTRAL ILLINOIS

CITY           SKY/WX    TMP DP  RH WIND       PRES   REMARKS
QUINCY         CLEAR     27  14  58 SE7       30.18F WCI  19
GALESBURG*     CLEAR     24  14  67 E3        30.20S
MACOMB*        CLEAR     22  17  81 E5        30.22S WCI  15
JACKSONVILLE*  PTCLDY    26  20  76 E5        30.20S WCI  21
PITTSFIELD*    PTCLDY    28  19  70 CALM      30.20F
$$

ILZ028>032-037-038-041>044-048-051>054-059>061-280900-
CENTRAL ILLINOIS

CITY           SKY/WX    TMP DP  RH WIND       PRES   REMARKS
PONTIAC        CLEAR     20  18  90 CALM      30.24S
BLOOMINGTON    CLEAR     20  16  84 E5        30.22S WCI  14
DECATUR        CLEAR     21  16  81 E8        30.22S WCI  11
PEORIA         CLEAR     24  15  68 E7        30.23S WCI  16
LACON*         CLEAR     20  14  79 CALM      30.23F
LINCOLN*       CLEAR     24  19  80 E5        30.24S WCI  19
SPRINGFIELD    CLEAR     25  17  72 E9        30.22S WCI  15
TAYLORVILLE    CLEAR     27  19  74 E9        30.21S WCI  17
$$

ILZ033-039-045-046-055>057-062-063-280900-
EAST-CENTRAL ILLINOIS

CITY           SKY/WX    TMP DP  RH WIND       PRES   REMARKS
CHAMPAIGN      CLEAR     20  13  74 NE5       30.21F WCI  13
DANVILLE*      CLEAR     19  16  87 CALM      30.19S
RANTOUL*       CLEAR     23  16  75 CALM      30.21S
MATTOON        CLEAR     22  15  75 NE7       30.20F WCI  13
PARIS*         CLEAR     22  18  81 CALM      30.22F
$$

ILZ079-100>102-280900-
SOUTHWEST ILLINOIS

CITY           SKY/WX    TMP DP  RH WIND       PRES   REMARKS
ALTON          CLEAR     28  24  84 CALM      30.21S
BELLEVILLE     CLEAR     25  21  87 N2        30.20S
CAHOKIA*       CLEAR     29  20  69 CALM      30.21S
SPARTA*        CLEAR     27  22  81 CALM      30.21S
$$

ILZ064>066-069>071-074>076-080>082-084>086-088>090-092>094-280900-
SOUTH-CENTRAL ILLINOIS

CITY           SKY/WX    TMP DP  RH WIND       PRES   REMARKS
CARBONDALE     CLEAR     29  18  63 CALM      30.20F
CAIRO*         CLEAR     31  24  73 N7        30.20S WCI  24
EFFINGHAM*     CLEAR     26  17  67 NE5       30.23S WCI  21
MARION         CLEAR     27  21  80 CALM      30.21S
MT. VERNON     CLEAR     21  16  79 CALM      30.20F
CENTRALIA*     CLEAR     26  22  85 CALM      30.20F
SALEM*         CLEAR     29  20  70 CALM      30.20F
METROPOLIS*    CLEAR     28  23  81 CALM      30.19S
$$

ILZ067-068-072-073-078-083-087-091-280900-
SOUTHEAST ILLINOIS

CITY           SKY/WX    TMP DP  RH WIND       PRES   REMARKS
LAWRENCEVILLE  CLEAR     25  17  72 NE5       30.22S WCI  19
FLORA*         CLEAR     26  20  80 NE6       30.22S WCI  19
FAIRFIELD*     CLEAR     26  20  80 N3        30.20S
HARRISBURG*    CLEAR     26  21  84 CALM      30.22S
ROBINSON*      CLEAR     23  16  76 NE5       30.23F WCI  17
CARMI*         CLEAR     27  18  70 N5        30.20F WCI  21
$$

ABBREVIATIONS USED IN REMARKS
   TC - TEMPERATURE IN CELSIUS
  WCI - WIND CHILL INDEX
   HX - HEAT INDEX
  VSB - VISIBILITY
$$



USA.gov is the U.S. government's official web portal to all federal, state and local government web resources and services.